Location: Newark
(42.5928°N, 8.7846°W)
Time: 23:38:24
(UTC+00:00)

ISS - Visible Passes

Search period start: 14 December 2019 00:00
Search period end: 24 December 2019 00:00
Orbit: 411 x 421 km, 51.6° (Epoch: 15 December)

Date Brightness Start Highest point End Pass type
(mag) Time Alt. Az. Time Alt. Az. Time Alt. Az.
21 Dec -1.2 06:52:17 10° S 06:54:59 24° SE 06:57:43 10° E visible
22 Dec -0.6 06:04:49 10° SSE 06:06:37 14° SE 06:08:27 10° E visible
23 Dec -3.4 06:51:07 10° SW 06:54:25 66° SE 06:57:43 10° ENE visible
